Location: Nebraska Star Party
(42.6000°N, 100.8833°W)
Time: 13:49:49
(UTC-05:00)

Amateur Radio Satellites - All Passes

Search period start: 02 September 2014 13:19
Search period end: 03 September 2014 13:19
Location: Nebraska Star Party, 42.6000°N, 100.8833°W

Satellite Date Start Highest point End Downlink Frequencies (MHz)
Time Altitude Azimuth
MaSat-1 02 Sep 13:30:27 13:35:18 61° 112° (ESE) 13:40:24 437.345 MHz
Oscar 16 02 Sep 13:33:31 13:37:59 31° 66° (ENE) 13:42:29 437.025 USB, Beacon 2401.1428
ISS 02 Sep 13:35:56 13:38:15 17° 356° (N) 13:40:34 145.800 FM
ITAMSAT 1 02 Sep 13:38:56 13:41:55 16° 60° (ENE) 13:44:53 435.822 SSB
Uribyol 2 02 Sep 13:47:22 13:50:58 20° 62° (ENE) 13:54:35 436.500 FM
AO-27 02 Sep 14:07:07 14:11:27 28° 65° (ENE) 14:15:47 436.795 MHz FM
SO-50 02 Sep 14:13:58 14:17:06 17° 250° (WSW) 14:20:15 436.795 FM
UOSAT-12 02 Sep 14:15:51 14:20:31 55° 52° (NE) 14:25:06 437.025 FM, 437.400 FM
Oscar 19 02 Sep 14:36:28 14:41:38 76° 257° (WSW) 14:46:51 437.125 CW, 437.150 USB
AO-Echo 02 Sep 14:40:45 14:45:38 58° 73° (ENE) 14:50:24 ?
Gurwin Techsat 1B 02 Sep 14:51:31 14:56:10 32° 67° (ENE) 15:00:50 435.225 FM
JAS-1B 02 Sep 15:04:50 15:14:35 85° 74° (ENE) 15:23:11 435.800 - 435.900 CW/SSB
MaSat-1 02 Sep 15:08:52 15:12:45 22° 311° (NW) 15:16:43 437.345 MHz
Oscar 16 02 Sep 15:12:34 15:17:14 34° 263° (W) 15:21:58 437.025 USB, Beacon 2401.1428
ISS 02 Sep 15:13:03 15:15:49 24° 17° (NNE) 15:18:35 145.800 FM
ITAMSAT 1 02 Sep 15:15:38 15:20:47 74° 257° (WSW) 15:25:58 435.822 SSB
RS-15 02 Sep 15:21:16 15:31:07 35° 33° (NNE) 15:41:13 29.354 - 29.394 USB, Beacon 29.352 USB
Uribyol 2 02 Sep 15:24:57 15:30:00 57° 259° (W) 15:35:06 436.500 FM
AO-7 02 Sep 15:35:28 15:42:17 30° 55° (NE) 15:49:05 29.400 - 29.500 MHz
Uosat F 02 Sep 15:37:14 15:39:12 12° 58° (ENE) 15:41:11 435.120 FM
TMSAT-1 02 Sep 15:40:23 15:45:36 64° 73° (ENE) 15:50:51 436.925 FM
AO-27 02 Sep 15:46:00 15:50:48 38° 262° (W) 15:55:37 436.795 MHz FM
Sapphire 02 Sep 15:52:21 15:53:04 10° 101° (E) 15:53:48 437.095 MHz 1200 baud AX-25 AFSK
UOSAT-12 02 Sep 15:56:58 16:00:15 19° 250° (WSW) 16:03:29 437.025 FM, 437.400 FM
PCSat 02 Sep 16:17:50 16:21:48 21° 106° (ESE) 16:25:47 145.825 MHz
AO-Echo 02 Sep 16:21:41 16:24:45 16° 268° (W) 16:27:46 ?
Gurwin Techsat 1B 02 Sep 16:31:17 16:36:04 34° 264° (W) 16:40:53 435.225 FM
ISS 02 Sep 16:49:32 16:52:52 81° 215° (SW) 16:56:11 145.800 FM
JAS-1B 02 Sep 16:58:27 17:05:41 24° 269° (W) 17:12:26 435.800 - 435.900 CW/SSB
OPAL 02 Sep 17:07:25 17:10:12 14° 92° (E) 17:12:58 ?
Uosat F 02 Sep 17:12:14 17:17:15 90° 255° (WSW) 17:22:17 435.120 FM
TMSAT-1 02 Sep 17:22:40 17:25:58 17° 270° (W) 17:29:17 436.925 FM
AO-7 02 Sep 17:26:06 17:34:25 71° 255° (WSW) 17:42:45 29.400 - 29.500 MHz
JAS-2 02 Sep 17:29:19 17:33:08 19° 62° (ENE) 17:36:45 435.800 - 435.900 CW/SSB, 435.910 FM
Sapphire 02 Sep 17:30:10 17:35:33 80° 118° (ESE) 17:41:00 437.095 MHz 1200 baud AX-25 AFSK
RS-15 02 Sep 17:33:45 17:44:52 85° 239° (WSW) 17:56:26 29.354 - 29.394 USB, Beacon 29.352 USB
Hamsat 02 Sep 17:54:04 17:57:25 22° 67° (ENE) 18:00:48 145.90 MHz
PCSat 02 Sep 17:59:27 18:04:46 57° 304° (NW) 18:10:08 145.825 MHz
OPAL 02 Sep 18:44:22 18:49:36 73° 289° (WNW) 18:54:46 ?
Uosat F 02 Sep 18:56:17 18:56:42 10° 272° (W) 18:57:08 435.120 FM
JAS-2 02 Sep 19:11:51 19:17:51 66° 258° (WSW) 19:23:15 435.800 - 435.900 CW/SSB, 435.910 FM
Sapphire 02 Sep 19:15:47 19:19:38 19° 318° (NW) 19:23:31 437.095 MHz 1200 baud AX-25 AFSK
AO-7 02 Sep 19:25:15 19:28:36 13° 273° (W) 19:31:58 29.400 - 29.500 MHz
Hamsat 02 Sep 19:29:13 19:33:10 35° 263° (W) 19:37:11 145.90 MHz
HO-68 02 Sep 19:38:29 19:40:53 12° 47° (NE) 19:43:16 435.675 MHz FM
SO-67 02 Sep 19:44:47 19:48:07 46° 74° (ENE) 19:51:28 435.3500 MHz FM
PCSat 02 Sep 19:47:09 19:49:25 13° 326° (NW) 19:51:40 145.825 MHz
RS-15 02 Sep 19:48:02 19:55:37 22° 260° (W) 20:03:26 29.354 - 29.394 USB, Beacon 29.352 USB
OPAL 02 Sep 20:26:09 20:27:33 11° 307° (NW) 20:28:58 ?
STRAND 1 02 Sep 20:33:22 20:38:29 72° 103° (ESE) 20:43:34 ?
HO-68 02 Sep 21:20:09 21:27:05 57° 68° (ENE) 21:34:03 435.675 MHz FM
SO-67 02 Sep 21:21:17 21:21:26 10° 270° (W) 21:21:35 435.3500 MHz FM
UKube-1 02 Sep 21:30:47 21:34:24 26° 67° (ENE) 21:38:02 145.840 MHz, 145.915 MHz
Oscar 11 02 Sep 21:34:09 21:37:07 18° 65° (ENE) 21:40:07 145.825 FM, Beacon 2401.500 USB
MaSat-1 02 Sep 21:48:18 21:51:30 18° 47° (NE) 21:54:26 437.345 MHz
Saudisat 1A 02 Sep 21:55:52 21:58:56 19° 111° (ESE) 22:02:00 436.775 MHz
FUNcube-1 02 Sep 22:09:15 22:11:55 17° 64° (ENE) 22:14:38 145.950 - 145.970 MHz USB
STRAND 1 02 Sep 22:14:06 22:17:05 16° 300° (WNW) 22:20:04 ?
KITSAT 1 02 Sep 22:42:31 22:48:45 25° 104° (ESE) 22:55:00 435.175 FM
UKube-1 02 Sep 23:06:44 23:10:31 29° 263° (W) 23:14:19 145.840 MHz, 145.915 MHz
Oscar 11 02 Sep 23:08:50 23:12:58 44° 261° (W) 23:17:10 145.825 FM, Beacon 2401.500 USB
HO-68 02 Sep 23:09:11 23:15:08 28° 266° (W) 23:21:08 435.675 MHz FM
MaSat-1 02 Sep 23:24:34 23:28:57 53° 249° (WSW) 23:32:42 437.345 MHz
Saudisat 1A 02 Sep 23:33:52 23:38:09 50° 308° (NW) 23:42:28 436.775 MHz
FUNcube-1 02 Sep 23:43:54 23:47:56 46° 261° (W) 23:52:05 145.950 - 145.970 MHz USB
KITSAT 1 03 Sep 00:35:17 00:43:23 74° 304° (WNW) 00:51:30 435.175 FM
Sapphire 03 Sep 00:35:28 00:38:33 15° 38° (NE) 00:41:38 437.095 MHz 1200 baud AX-25 AFSK
PCSat 03 Sep 01:03:52 01:08:13 24° 45° (NE) 01:12:33 145.825 MHz
Oscar 10/S400 03 Sep 01:23:33 02:11:03 54° 202° (SSW) 09:53:03 145.825 - 145.975 CW/USB, Beacon 145.810 USB
Sapphire 03 Sep 02:17:30 02:22:58 74° 59° (ENE) 02:28:22 437.095 MHz 1200 baud AX-25 AFSK
KITSAT 1 03 Sep 02:34:05 02:40:15 23° 328° (NNW) 02:46:26 435.175 FM
PCSat 03 Sep 02:46:42 02:52:04 62° 244° (WSW) 02:57:23 145.825 MHz
Oscar 19 03 Sep 02:47:38 02:52:26 36° 97° (E) 02:57:11 437.125 CW, 437.150 USB
AO-Echo 03 Sep 02:48:23 02:51:19 16° 92° (E) 02:54:16 ?
SO-50 03 Sep 02:49:53 02:52:33 16° 109° (ESE) 02:55:15 436.795 FM
AO-40 03 Sep 02:50:57 03:51:15 14° 234° (SW) 05:17:50 Beacon 2401.320
JAS-1B 03 Sep 02:53:07 02:57:26 19° 88° (E) 03:01:26 435.800 - 435.900 CW/SSB
Gurwin Techsat 1B 03 Sep 03:09:12 03:10:44 11° 88° (E) 03:12:16 435.225 FM
Oscar 16 03 Sep 03:22:53 03:28:08 80° 103° (ESE) 03:33:19 437.025 USB, Beacon 2401.1428
ITAMSAT 1 03 Sep 03:27:59 03:32:48 37° 98° (E) 03:37:35 435.822 SSB
Uribyol 2 03 Sep 03:36:53 03:41:55 48° 100° (E) 03:46:56 436.500 FM
TMSAT-1 03 Sep 03:56:10 04:00:24 24° 93° (E) 04:04:37 436.925 FM
AO-27 03 Sep 03:57:46 04:02:58 72° 103° (ESE) 04:08:09 436.795 MHz FM
Sapphire 03 Sep 04:02:32 04:05:44 16° 256° (WSW) 04:08:54 437.095 MHz 1200 baud AX-25 AFSK
OPAL 03 Sep 04:22:14 04:26:34 29° 63° (ENE) 04:30:57 ?
AO-Echo 03 Sep 04:25:51 04:30:26 53° 288° (WNW) 04:35:01 ?
Oscar 19 03 Sep 04:27:12 04:31:38 29° 294° (WNW) 04:36:04 437.125 CW, 437.150 USB
SO-50 03 Sep 04:28:09 04:32:35 60° 307° (NW) 04:37:09 436.795 FM
UOSAT-12 03 Sep 04:30:11 04:32:23 13° 108° (ESE) 04:34:36 437.025 FM, 437.400 FM
KITSAT 1 03 Sep 04:36:09 04:39:21 13° 358° (N) 04:42:34 435.175 FM
JAS-1B 03 Sep 04:42:22 04:48:55 63° 290° (WNW) 04:54:38 435.800 - 435.900 CW/SSB
Gurwin Techsat 1B 03 Sep 04:46:04 04:51:24 89° 284° (WNW) 04:56:43 435.225 FM
Oscar 16 03 Sep 05:04:01 05:06:48 15° 301° (WNW) 05:09:34 437.025 USB, Beacon 2401.1428
ITAMSAT 1 03 Sep 05:07:45 05:12:09 29° 295° (WNW) 05:16:32 435.822 SSB
Uribyol 2 03 Sep 05:17:04 05:21:04 23° 297° (WNW) 05:25:04 436.500 FM
Uosat F 03 Sep 05:19:47 05:23:58 26° 95° (E) 05:28:07 435.120 FM
AO-7 03 Sep 05:27:08 05:34:45 39° 98° (E) 05:42:19 29.400 - 29.500 MHz
TMSAT-1 03 Sep 05:35:29 05:40:30 45° 290° (WNW) 05:45:30 436.925 FM
AO-27 03 Sep 05:38:48 05:41:53 16° 300° (WNW) 05:44:58 436.795 MHz FM
RS-15 03 Sep 05:56:31 05:58:32 11° 94° (E) 06:00:32 29.354 - 29.394 USB, Beacon 29.352 USB
OPAL 03 Sep 06:00:36 06:05:17 37° 260° (W) 06:10:04 ?
UOSAT-12 03 Sep 06:07:16 06:11:53 74° 305° (NW) 06:16:37 437.025 FM, 437.400 FM
SO-50 03 Sep 06:12:23 06:14:09 12° 328° (NNW) 06:15:55 436.795 FM
STRAND 1 03 Sep 06:13:46 06:16:35 15° 60° (ENE) 06:19:25 ?
Saudisat 1A 03 Sep 06:20:53 06:24:23 22° 43° (NE) 06:27:52 436.775 MHz
JAS-2 03 Sep 06:21:26 06:23:45 13° 90° (E) 06:26:09 435.800 - 435.900 CW/SSB, 435.910 FM
Gurwin Techsat 1B 03 Sep 06:28:11 06:30:35 13° 302° (WNW) 06:32:59 435.225 FM
KITSAT 1 03 Sep 06:32:56 06:38:40 20° 29° (NNE) 06:44:21 435.175 FM
JAS-1B 03 Sep 06:36:40 06:37:54 11° 313° (NW) 06:39:07 435.800 - 435.900 CW/SSB
Uosat F 03 Sep 06:58:13 07:02:49 38° 292° (WNW) 07:07:25 435.120 FM
Hamsat 03 Sep 07:14:02 07:18:06 38° 97° (E) 07:22:07 145.90 MHz
AO-7 03 Sep 07:19:48 07:27:41 50° 297° (WNW) 07:35:31 29.400 - 29.500 MHz
STRAND 1 03 Sep 07:50:04 07:55:09 75° 257° (WSW) 08:00:16 ?
UOSAT-12 03 Sep 07:50:21 07:52:53 14° 325° (NW) 07:55:26 437.025 FM, 437.400 FM
RS-15 03 Sep 07:57:35 08:08:21 60° 114° (ESE) 08:18:57 29.354 - 29.394 USB, Beacon 29.352 USB
Saudisat 1A 03 Sep 07:59:57 08:04:13 50° 241° (WSW) 08:08:28 436.775 MHz
JAS-2 03 Sep 08:04:05 08:09:24 80° 285° (WNW) 08:15:11 435.800 - 435.900 CW/SSB, 435.910 FM
KITSAT 1 03 Sep 08:27:50 08:35:52 62° 53° (NE) 08:43:50 435.175 FM
SO-67 03 Sep 08:40:40 08:44:04 51° 100° (E) 08:47:25 435.3500 MHz FM
Hamsat 03 Sep 08:50:36 08:53:48 20° 294° (WNW) 08:56:58 145.90 MHz
AO-7 03 Sep 09:15:41 09:18:30 12° 319° (NW) 09:21:19 29.400 - 29.500 MHz
ISS 03 Sep 09:32:59 09:35:37 22° 135° (SE) 09:38:15 145.800 FM
JAS-2 03 Sep 09:52:18 09:53:46 11° 303° (WNW) 09:55:16 435.800 - 435.900 CW/SSB, 435.910 FM
RS-15 03 Sep 10:10:39 10:21:05 46° 319° (NW) 10:31:30 29.354 - 29.394 USB, Beacon 29.352 USB
SO-67 03 Sep 10:16:16 10:16:38 10° 296° (WNW) 10:17:01 435.3500 MHz FM
KITSAT 1 03 Sep 10:23:56 10:30:46 32° 253° (WSW) 10:37:35 435.175 FM
HO-68 03 Sep 10:34:23 10:41:25 55° 101° (ESE) 10:48:24 435.675 MHz FM
UKube-1 03 Sep 10:53:41 10:57:49 42° 99° (E) 11:01:57 145.840 MHz, 145.915 MHz
Oscar 11 03 Sep 10:55:51 10:59:44 31° 96° (E) 11:03:36 145.825 FM, Beacon 2401.500 USB
ISS 03 Sep 11:08:54 11:12:09 50° 331° (NNW) 11:15:24 145.800 FM
SO-50 03 Sep 11:19:03 11:22:52 23° 42° (NE) 11:26:43 436.795 FM
FUNcube-1 03 Sep 11:32:07 11:36:13 32° 96° (E) 11:40:20 145.950 - 145.970 MHz USB
HO-68 03 Sep 12:22:40 12:28:46 31° 300° (WNW) 12:34:51 435.675 MHz FM
RS-15 03 Sep 12:28:59 12:37:11 23° 351° (N) 12:45:29 29.354 - 29.394 USB, Beacon 29.352 USB
UKube-1 03 Sep 12:30:40 12:33:43 19° 296° (WNW) 12:36:46 145.840 MHz, 145.915 MHz
Oscar 11 03 Sep 12:32:13 12:35:48 25° 293° (WNW) 12:39:21 145.825 FM, Beacon 2401.500 USB
ISS 03 Sep 12:47:00 12:49:27 19° 351° (N) 12:51:54 145.800 FM
UOSAT-12 03 Sep 12:57:00 13:00:26 19° 39° (NE) 13:03:49 437.025 FM, 437.400 FM
SO-50 03 Sep 12:59:04 13:03:46 57° 241° (WSW) 13:08:31 436.795 FM
Oscar 16 03 Sep 13:03:43 13:06:58 17° 61° (ENE) 13:10:14 437.025 USB, Beacon 2401.1428
FUNcube-1 03 Sep 13:08:40 13:12:29 27° 292° (WNW) 13:16:20 145.950 - 145.970 MHz USB
